Probability
0 0 0 0 0 0 0 0 0 0 0 0 0 0 0 0 0 0 0 0 0 0 0 0 3 6 6 3 3 0 0 0 0 0 0 0 0 0 0 0 0 0 0 0
0 0 0 0 0 0 0 0 0 0 0 0 0 0 0 0 0 0 0 0 0 0 0 0 0 6 6 6 3 3 0 0 0 0 0 0 0 0 0 0 0 0 0 0
0 0 0 0 0 0 0 0 0 0 0 0 0 0 0 0 0 0 0 0 0 0 0 0 0 0 3 6 3 3 6 0 0 0 0 0 0 0 0 0 0 0 0 0
0 0 0 0 0 0 0 0 0 0 0 0 0 0 0 0 0 0 0 0 0 0 0 0 0 0 3 6 6 3 6 3 0 0 0 0 0 0 0 0 0 0 0 0
0 0 0 0 0 0 0 0 0 0 0 0 0 0 0 0 0 0 0 0 0 0 0 0 0 0 0 6 3 3 3 6 0 0 0 0 0 0 0 0 0 0 0 0
0 0 0 0 0 0 0 0 0 0 0 0 0 0 0 0 0 0 0 0 0 0 0 0 0 0 3 6 3 3 3 6 0 0 0 0 0 0 0 0 0 0 0 0
0 0 0 0 0 0 0 0 0 0 0 0 0 0 0 0 0 0 0 0 0 0 0 0 0 0 3 0 3 3 6 6 3 0 0 0 0 0 0 0 0 0 0 0
0 0 0 0 0 0 0 0 0 0 0 0 0 0 0 0 0 0 0 0 0 0 0 0 0 0 0 0 3 3 3 6 3 3 0 0 0 0 0 0 0 0 0 0
0 0 0 0 0 0 0 0 0 0 0 0 0 0 0 0 0 0 0 0 0 0 0 0 0 0 0 0 3 3 3 6 6 3 3 0 0 0 0 0 0 0 0 0
0 0 0 0 0 0 0 0 0 0 0 0 0 0 0 0 0 0 0 0 0 0 0 0 0 0 0 0 0 3 3 3 6 6 3 3 0 0 0 0 0 0 0 0
0 0 0 0 0 0 0 0 0 0 0 0 0 0 0 0 0 0 0 0 0 0 0 0 0 0 0 0 0 3 3 3 3 6 3 3 3 0 0 0 0 0 0 0
0 0 0 0 0 0 0 0 0 0 0 0 0 0 0 0 0 0 0 0 0 0 0 0 0 0 0 0 0 3 3 3 3 3 3 3 3 3 0 0 0 0 0 0
0 0 0 0 0 0 0 0 0 0 0 0 0 0 0 0 0 0 0 0 0 0 0 0 0 0 0 0 0 0 3 3 3 3 0 3 3 3 3 3 0 0 0 0
0 0 0 0 0 0 0 0 0 0 0 0 0 0 0 0 0 0 0 0 0 0 0 0 0 0 0 0 0 0 3 3 3 3 0 0 3 3 3 3 3 0 0 0
0 0 0 0 0 0 0 0 0 0 0 0 0 0 0 0 0 0 0 0 0 0 0 0 0 0 0 0 0 0 3 3 3 3 0 0 3 3 3 3 3 3 0 0
0 0 0 0 0 0 0 0 0 0 0 0 0 0 0 0 0 0 0 0 0 0 0 0 0 0 0 0 0 0 3 3 3 3 0 0 0 3 3 3 3 3 3 0
0 0 0 0 0 0 0 0 0 0 0 0 0 0 0 0 0 0 0 0 0 0 0 0 0 0 0 0 0 0 0 3 3 3 0 0 0 0 3 3 3 3 0 0
0 0 0 0 0 0 0 0 0 0 0 0 0 0 0 0 0 0 0 0 0 0 0 0 0 0 0 0 0 0 0 3 3 3 0 0 0 0 0 0 0 0 0 0
0 0 0 0 0 0 0 0 0 0 0 0 0 0 0 0 0 0 0 0 0 0 0 0 0 0 0 0 0 0 3 3 3 3 0 0 0 0 0 0 0 0 0 0
0 0 0 0 0 0 0 0 0 0 0 0 0 0 0 0 0 0 0 0 0 0 0 0 0 0 0 0 0 0 0 3 0 3 3 0 0 0 0 0 0 0 0 0
0 0 0 0 0 0 0 0 0 0 0 0 0 0 0 0 0 0 0 0 0 0 0 0 0 0 0 0 0 0 0 0 0 3 3 0 0 0 0 0 0 0 0 0
0 0 0 0 0 0 0 0 0 0 0 0 0 0 0 0 0 0 0 0 0 0 0 0 0 0 0 0 0 0 0 0 0 0 0 0 0 0 0 0 0 0 0 0
0 0 0 0 0 0 0 0 0 0 0 0 0 0 0 0 0 0 0 0 0 0 0 0 0 0 0 0 0 0 0 0 0 0 0 0 0 0 0 0 0 0 0 0
0 0 0 0 0 0 0 0 0 0 0 0 0 0 0 0 0 0 0 0 0 0 0 0 0 0 0 0 0 0 0 0 0 0 0 0 0 0 0 0 0 0 0 0
0 0 0 0 0 0 0 0 0 0 0 0 0 0 0 0 0 0 0 0 0 0 0 0 0 0 0 0 0 0 0 0 0 0 0 0 0 0 0 0 0 0 0 0
0 0 0 0 0 0 0 0 0 0 0 0 0 0 0 0 0 0 0 0 0 0 0 0 0 0 0 0 0 0 0 0 0 0 0 0 0 0 0 0 0 0 0 0
Height
5856 5857 5857 5856 5856 5856 5856 5855 5855 5854 5854 5853 5853 5852 5852 5851 5850 5850 5849 5849 5848 5848 5847 5846 5846 5845 5845 5844 5843 5842 5841 5841 5840 5839 5837 5836 5835 5833 5832 5831 5829 5828 5827 5826
5855 5854 5854 5854 5853 5853 5852 5852 5851 5851 5850 5850 5849 5849 5848 5848 5847 5847 5846 5845 5845 5844 5843 5842 5842 5841 5841 5840 5839 5838 5837 5836 5835 5834 5833 5831 5830 5829 5828 5827 5825 5824 5823 5821
5851 5852 5851 5851 5850 5850 5849 5849 5848 5848 5847 5846 5846 5846 5845 5844 5843 5843 5842 5841 5841 5840 5839 5838 5838 5837 5836 5835 5835 5833 5832 5831 5830 5829 5828 5827 5825 5824 5823 5822 5821 5820 5818 5817
5848 5848 5848 5847 5847 5846 5846 5846 5845 5844 5843 5843 5842 5841 5842 5840 5839 5839 5838 5837 5836 5835 5834 5833 5833 5832 5831 5830 5830 5829 5827 5826 5825 5824 5823 5822 5820 5819 5818 5817 5816 5815 5813 5812
5845 5845 5844 5844 5844 5843 5843 5842 5841 5840 5839 5839 5838 5836 5838 5836 5835 5834 5834 5833 5832 5831 5829 5828 5827 5827 5826 5825 5824 5823 5822 5821 5820 5818 5817 5816 5815 5814 5813 5811 5811 5810 5808 5807
5842 5841 5841 5841 5840 5840 5839 5839 5838 5836 5835 5835 5834 5832 5832 5832 5831 5830 5828 5827 5827 5825 5824 5823 5822 5821 5820 5819 5818 5817 5816 5815 5814 5813 5811 5811 5810 5808 5807 5806 5805 5804 5803 5802
5839 5838 5837 5837 5837 5836 5835 5835 5834 5832 5831 5831 5829 5827 5828 5827 5826 5824 5823 5822 5821 5819 5818 5817 5816 5815 5814 5813 5812 5811 5810 5809 5808 5806 5805 5804 5803 5802 5801 5800 5799 5798 5797 5796
5834 5835 5834 5833 5832 5832 5831 5831 5830 5828 5827 5826 5825 5823 5824 5822 5820 5818 5817 5816 5814 5813 5812 5811 5809 5808 5807 5806 5805 5804 5803 5802 5801 5799 5798 5797 5796 5795 5794 5793 5792 5791 5790 5790
5829 5830 5830 5829 5828 5828 5827 5826 5825 5824 5822 5820 5819 5819 5818 5816 5814 5812 5811 5810 5808 5807 5805 5804 5803 5802 5801 5799 5798 5797 5796 5795 5793 5792 5791 5790 5788 5787 5786 5786 5785 5784 5783 5782
5825 5825 5825 5825 5824 5823 5822 5821 5820 5818 5816 5815 5814 5814 5813 5811 5809 5807 5805 5804 5802 5801 5799 5798 5797 5795 5794 5793 5792 5790 5789 5788 5787 5785 5783 5782 5780 5779 5778 5778 5777 5776 5775 5774
5820 5820 5820 5820 5819 5819 5818 5817 5815 5813 5812 5810 5808 5811 5808 5805 5803 5801 5799 5797 5795 5794 5793 5791 5790 5789 5787 5786 5785 5784 5782 5781 5780 5778 5776 5774 5773 5771 5770 5769 5769 5768 5767 5766
5815 5815 5815 5815 5814 5813 5812 5811 5810 5809 5807 5805 5803 5806 5802 5799 5797 5794 5792 5790 5789 5787 5786 5784 5783 5782 5780 5779 5778 5777 5776 5774 5772 5771 5769 5767 5765 5763 5762 5761 5760 5760 5759 5759
5810 5810 5809 5809 5811 5808 5806 5805 5804 5802 5801 5799 5797 5799 5795 5793 5790 5788 5786 5784 5782 5781 5779 5777 5776 5774 5773 5772 5770 5769 5768 5767 5765 5763 5761 5759 5758 5756 5754 5753 5752 5752 5751 5750
5804 5804 5804 5804 5803 5801 5800 5799 5798 5796 5794 5792 5791 5790 5789 5786 5783 5781 5779 5777 5776 5774 5772 5770 5768 5767 5765 5764 5762 5761 5760 5759 5757 5755 5753 5751 5750 5748 5747 5745 5744 5743 5743 5742
5798 5797 5797 5796 5795 5794 5793 5793 5791 5789 5787 5786 5784 5782 5781 5778 5776 5774 5772 5770 5768 5767 5764 5763 5761 5759 5758 5756 5755 5753 5752 5751 5749 5747 5745 5743 5742 5740 5739 5737 5736 5735 5734 5733
5791 5791 5790 5790 5788 5787 5786 5785 5784 5782 5780 5778 5777 5775 5773 5770 5768 5766 5764 5763 5761 5759 5757 5755 5753 5752 5750 5748 5747 5746 5744 5742 5740 5739 5737 5735 5734 5732 5731 5729 5727 5726 5725 5724
5784 5783 5783 5782 5781 5779 5779 5779 5776 5774 5773 5771 5769 5768 5765 5763 5760 5759 5757 5755 5753 5751 5749 5748 5746 5744 5742 5740 5738 5737 5736 5734 5732 5730 5729 5727 5725 5724 5722 5720 5719 5717 5716 5715
5777 5775 5774 5774 5773 5772 5775 5770 5768 5766 5765 5763 5761 5759 5757 5755 5753 5751 5749 5747 5746 5744 5742 5740 5738 5736 5735 5733 5731 5729 5728 5726 5724 5722 5720 5719 5717 5715 5713 5711 5710 5708 5707 5706
5769 5768 5766 5765 5764 5764 5765 5763 5760 5758 5758 5756 5754 5752 5750 5748 5746 5745 5742 5740 5738 5736 5734 5732 5730 5729 5727 5725 5723 5721 5719 5717 5715 5714 5712 5710 5708 5706 5704 5702 5701 5699 5698 5697
5762 5760 5759 5757 5755 5755 5758 5755 5752 5751 5750 5749 5746 5744 5742 5740 5739 5738 5736 5733 5731 5729 5727 5725 5723 5721 5719 5717 5715 5713 5711 5709 5707 5706 5704 5702 5700 5698 5695 5693 5691 5690 5688 5687
5754 5752 5751 5749 5747 5747 5749 5747 5745 5744 5744 5741 5738 5736 5734 5733 5731 5730 5728 5726 5724 5722 5720 5718 5716 5714 5712 5710 5708 5706 5704 5702 5700 5697 5695 5693 5691 5689 5686 5684 5682 5680 5679 5678
5745 5744 5743 5741 5740 5742 5740 5738 5737 5736 5734 5732 5730 5728 5727 5725 5723 5722 5720 5718 5716 5715 5713 5710 5708 5707 5705 5703 5700 5699 5696 5694 5692 5690 5687 5685 5682 5680 5677 5675 5673 5671 5670 5669
5737 5737 5735 5734 5735 5734 5732 5730 5729 5727 5726 5724 5722 5721 5719 5718 5716 5715 5713 5711 5709 5707 5705 5703 5701 5699 5698 5695 5693 5691 5689 5687 5684 5682 5679 5676 5674 5671 5669 5666 5665 5663 5662 5661
5729 5728 5727 5726 5726 5725 5724 5722 5721 5719 5718 5716 5714 5713 5711 5710 5708 5707 5705 5704 5702 5700 5698 5696 5694 5692 5690 5688 5686 5684 5681 5679 5677 5674 5671 5669 5666 5663 5661 5659 5657 5655 5654 5654
5721 5720 5718 5718 5718 5717 5716 5714 5712 5711 5709 5707 5706 5705 5703 5702 5700 5699 5697 5696 5694 5692 5690 5689 5687 5685 5683 5680 5678 5676 5674 5671 5669 5667 5664 5661 5658 5656 5653 5651 5649 5647 5647 5645
5712 5711 5710 5710 5710 5708 5707 5705 5704 5702 5701 5699 5697 5696 5695 5693 5692 5691 5689 5687 5686 5684 5682 5680 5678 5676 5674 5672 5670 5668 5666 5664 5661 5659 5656 5653 5651 5648 5646 5644 5642 5640 5639 5637
Wind_Speed
9 8 9 10 10 11 11 11 11 11 11 11 11 11 10 11 11 12 13 13 13 14 14 14 14 15 15 15 16 16 16 15 15 15 16 16 17 17 17 17 17 17 16 16
9 9 9 10 10 11 11 12 12 13 13 13 12 12 12 12 12 13 13 14 14 15 15 15 15 15 15 15 15 16 17 17 17 17 17 18 18 17 17 17 17 17 17 17
9 9 10 10 11 12 12 12 13 13 14 14 14 13 13 13 13 13 14 14 15 16 16 16 16 16 16 16 16 17 17 18 18 18 19 19 19 18 18 18 18 19 19 18
10 10 11 11 11 12 12 13 14 14 15 14 14 15 14 14 14 14 15 15 16 17 17 18 18 18 18 17 18 18 18 19 20 20 20 20 20 19 19 19 19 19 19 20
10 11 11 12 12 12 13 14 14 15 15 15 14 16 14 14 15 16 16 16 16 17 18 18 19 19 19 19 19 19 19 20 20 20 20 20 20 20 20 21 20 20 20 20
11 12 12 12 13 13 14 14 15 16 16 16 15 17 16 15 16 17 17 17 17 18 18 18 19 19 19 20 20 20 20 21 21 21 20 21 20 21 21 21 20 20 21 21
12 12 13 13 13 14 14 14 15 16 17 16 16 17 17 16 17 18 18 19 19 19 19 19 19 19 20 20 21 21 22 22 22 22 21 22 22 22 22 21 21 22 22 21
14 14 13 14 14 14 14 15 17 18 18 17 17 17 17 17 18 18 19 19 20 19 20 20 20 21 22 22 22 22 22 23 23 23 23 23 23 24 24 23 24 23 23 22
15 15 15 15 15 15 15 16 17 19 19 19 18 18 16 16 17 19 19 20 20 21 21 21 21 22 22 22 22 22 23 23 23 23 24 24 24 25 25 25 25 25 24 24
15 16 16 16 16 16 16 16 17 19 20 20 20 19 18 18 19 19 20 21 21 22 22 22 22 23 22 22 22 21 22 22 23 24 24 24 25 26 26 26 26 26 25 25
16 17 16 17 17 17 17 18 18 19 20 21 22 21 20 20 20 21 21 22 22 23 23 23 23 23 23 22 22 22 22 22 23 23 23 24 25 25 26 26 26 26 26 26
17 18 17 18 18 18 19 20 20 21 22 23 24 22 21 21 21 22 22 23 24 24 24 23 24 24 24 24 24 24 23 23 23 24 25 24 24 25 25 26 26 26 27 27
18 19 19 20 20 20 21 21 22 22 23 24 24 24 23 22 22 23 23 23 23 23 24 24 25 25 25 25 25 25 25 24 24 25 25 24 24 24 25 26 26 26 27 28
20 21 22 22 21 22 22 22 22 23 24 24 24 24 23 23 23 23 24 24 24 25 26 26 26 26 26 26 26 25 25 25 26 26 26 24 24 24 25 26 27 27 27 27
21 22 23 23 23 24 24 24 24 24 24 25 25 25 24 25 24 24 24 24 24 25 25 26 27 26 26 26 26 25 25 25 26 25 25 24 25 25 25 26 27 27 27 27
22 22 23 24 24 26 26 25 25 25 26 26 26 25 25 26 26 25 25 24 25 26 26 26 26 26 25 25 26 26 26 25 25 25 25 25 26 26 26 26 26 26 27 27
24 24 25 24 25 26 27 25 25 26 26 27 27 26 26 26 25 24 24 25 25 24 25 26 27 27 27 26 26 26 26 26 26 26 26 26 26 27 27 27 27 26 27 27
25 26 26 26 26 27 25 25 26 26 26 26 26 26 26 25 24 24 24 24 24 24 25 25 26 27 26 26 26 26 26 26 26 26 26 27 27 28 27 27 27 27 27 28
26 27 27 27 27 26 24 24 25 26 26 26 26 26 26 25 24 24 24 25 24 23 24 25 25 26 26 26 26 26 26 26 26 26 26 27 27 28 28 28 28 27 27 28
26 26 27 27 28 27 23 23 24 26 26 25 26 26 26 25 25 24 24 24 24 23 24 25 25 25 25 26 26 26 26 25 25 26 26 27 28 28 28 28 28 28 28 28
27 27 27 27 28 27 24 23 24 25 25 25 25 25 25 25 25 24 24 25 25 25 25 25 25 25 25 25 25 25 24 24 25 26 26 27 28 28 28 28 29 28 28 27
26 26 26 27 27 26 24 25 25 25 25 25 25 25 26 26 25 25 25 25 25 25 25 25 24 24 25 25 25 25 25 25 25 26 26 27 27 27 27 27 27 27 27 26
26 26 26 27 26 26 25 26 26 26 27 26 26 26 26 26 26 26 26 26 26 25 26 26 25 25 25 25 26 26 25 25 26 26 26 26 26 26 26 27 26 25 25 25
25 26 26 26 26 26 26 27 27 27 28 27 27 27 27 27 26 26 26 26 26 26 26 26 27 26 26 26 27 26 26 26 26 26 26 26 26 26 27 27 26 25 25 25
26 27 27 27 27 27 27 28 28 28 28 28 28 28 27 27 27 27 27 27 27 26 26 27 27 27 27 27 27 27 27 27 27 27 26 26 26 26 26 25 25 25 25 25
28 28 28 28 28 29 29 29 29 29 29 29 29 29 28 28 28 28 27 27 28 28 28 29 28 28 28 28 28 28 27 27 28 27 27 26 26 26 25 25 23 24 24 25
Wind_Direction
253 256 259 261 262 265 267 272 274 278 279 280 281 281 283 287 290 291 288 287 287 286 285 284 285 286 287 289 289 290 290 290 291 292 293 293 293 292 292 292 294 294 294 296
256 256 260 262 266 267 271 275 275 275 276 278 279 283 288 291 291 289 288 289 290 290 288 286 285 284 286 288 288 289 290 290 290 290 290 290 289 289 290 291 291 292 294 295
260 259 261 264 268 268 275 275 275 275 276 276 278 279 284 289 289 290 290 290 290 291 290 289 287 285 286 287 288 289 290 290 289 288 288 288 288 287 288 288 289 290 290 291
260 261 263 266 268 271 273 275 276 279 279 279 279 277 278 285 286 290 291 290 290 291 290 290 289 287 287 288 289 288 287 288 288 287 287 286 285 286 287 288 289 287 287 288
264 264 267 267 269 272 273 276 279 282 281 281 283 281 280 284 287 289 291 289 287 288 290 289 288 287 286 286 287 287 286 286 285 285 286 285 284 285 286 286 286 287 285 284
268 269 268 271 272 274 275 276 279 280 281 282 284 283 287 288 289 291 293 292 291 290 291 290 288 287 287 287 286 285 285 286 286 285 283 284 285 285 285 285 285 285 285 284
267 268 267 271 273 275 277 276 277 278 280 283 283 284 289 290 290 291 291 292 292 292 291 290 288 287 286 286 285 284 284 285 285 284 281 283 282 282 283 283 283 284 284 283
268 268 267 269 273 278 280 277 279 281 282 283 282 285 291 290 290 290 291 291 291 291 290 288 286 286 286 286 285 285 285 284 284 284 282 281 281 281 281 281 282 282 282 282
271 267 266 266 270 274 277 279 279 282 282 284 286 289 291 291 290 289 289 289 288 288 287 286 285 286 286 285 285 286 286 285 286 286 284 281 280 281 281 282 282 281 281 280
273 270 268 266 267 271 275 279 280 283 285 286 288 290 294 294 291 289 287 285 284 284 284 284 284 285 285 285 286 286 287 287 287 287 285 281 280 280 280 280 281 281 281 280
272 272 270 268 269 271 272 275 280 282 283 286 288 289 294 294 294 290 287 285 284 283 281 282 284 284 284 283 284 283 284 287 289 288 287 285 283 281 280 279 280 280 279 279
270 271 271 271 272 273 273 275 278 278 281 283 286 289 290 290 289 289 286 284 283 284 283 281 283 284 284 283 282 281 282 285 287 288 287 286 284 282 281 280 279 279 279 279
270 271 271 270 270 271 274 275 276 277 279 282 285 288 289 289 287 286 285 284 283 283 283 280 281 283 283 282 283 283 283 284 285 287 288 287 285 282 281 279 279 279 279 279
270 270 271 272 272 273 275 276 277 278 280 283 285 288 288 287 285 283 284 281 280 281 282 280 280 282 283 283 283 282 284 285 285 285 287 286 285 282 281 280 279 278 278 278
273 273 273 273 273 273 275 277 278 279 281 282 285 286 287 285 283 280 281 281 281 282 283 283 282 282 283 282 281 281 283 286 286 286 286 285 284 284 282 281 281 278 276 276
274 275 276 275 275 274 275 277 279 280 281 282 283 284 284 284 281 279 279 281 283 283 283 283 284 283 282 281 281 282 284 285 285 286 286 285 284 284 284 282 282 280 276 274
275 276 277 276 274 274 275 278 278 280 282 284 284 285 285 284 284 282 284 286 285 284 284 283 283 282 282 283 283 284 285 285 285 285 285 285 285 286 287 284 282 280 277 274
277 278 278 278 276 275 278 277 278 279 282 284 286 289 288 286 284 285 286 287 286 284 284 284 284 283 282 284 284 285 286 286 286 285 285 285 286 287 287 285 283 280 278 274
277 278 278 279 279 280 279 280 281 281 283 285 287 288 288 286 284 284 284 285 286 285 284 284 285 285 285 286 287 287 288 288 286 285 286 287 287 288 287 285 283 280 279 277
277 277 277 278 279 281 283 281 282 283 284 286 286 287 287 286 284 285 286 284 284 285 285 286 285 285 287 289 289 290 289 288 288 288 288 288 288 288 287 286 284 282 279 278
276 275 276 277 278 281 283 281 282 282 284 285 286 286 286 286 285 286 286 285 285 286 287 287 287 285 287 289 290 291 289 288 289 291 292 291 290 289 287 286 284 282 280 278
275 275 276 277 279 283 283 282 283 284 284 285 285 284 283 283 284 284 284 284 287 288 288 288 289 288 288 289 291 291 290 291 293 295 295 293 292 291 288 287 285 282 280 277
273 274 275 275 278 281 282 282 282 283 283 283 283 284 283 282 282 283 284 285 287 289 289 288 289 288 288 289 291 293 292 293 295 296 297 296 293 292 289 287 285 282 280 277
272 271 272 274 276 279 281 282 283 284 283 282 282 284 284 284 284 284 285 287 288 289 289 288 289 288 288 288 290 291 292 294 296 298 298 296 295 292 289 286 283 282 280 277
273 272 272 273 275 276 279 282 283 283 282 281 281 282 283 284 283 283 284 285 287 288 288 289 290 289 287 288 289 289 291 293 295 297 298 297 295 294 291 287 285 284 282 279
272 273 273 274 276 278 279 281 283 283 282 281 281 281 281 282 283 283 283 284 285 286 287 288 289 290 289 288 288 289 290 292 294 295 297 296 295 294 292 290 287 284 281 279